Regional Weather Roundup
Issued by NWS

Home | Current Version | Previous Version | Graphics & Text | Print | Product List | Glossary Off
Versions: 1 2 3 4 5 6 7 8 9 10 11 12 13 14 15 16 17 18 19 20 21 22 23 24 25 26 27 28 29 30 31 32 33 34 35 36 37 38 39 40 41 42 43 44 45 46 47 48 49 50

000
ASUS43 KDMX 311904
RWRIA

WEATHER ROUNDUP FOR IOWA
NATIONAL WEATHER SERVICE DES MOINES IA
  ISSUED BY NWS QUAD CITIES IA IL
100 PM CST SAT JAN 31 2015

NOTE: "FAIR" INDICATES FEW OR NO CLOUDS BELOW 12,000 FEET WITH NO
SIGNIFICANT WEATHER AND/OR OBSTRUCTIONS TO VISIBILITY.

* - THESE STATIONS ARE NOT NWS STATIONS...THUS NOT UNDER NWS
QUALITY CONTROL.  THEY ALSO DO NOT REPORT WEATHER SUCH
AS PRECIPITATION OR FOG.

IAZ001>003-012>014-020>022-031>034-043>046-312000-
   NORTHWEST IOWA

CITY           SKY/WX    TMP DP  RH WIND       PRES   REMARKS
CARROLL *      CLOUDY    36  36 100 SW14G22   30.09F FOG     WCI  27
CHEROKEE *     MIX PCPN  31  31 100 NE8       30.09F WCI  24
DENNISON *     CLOUDY    36  36 100 SW14      30.07F WCI  27
LE MARS *      MIX PCPN  32  32 100 NE8G15    30.08F WCI  25
ORANGE CITY *  CLOUDY    28  27  93 E10G16    30.08F FOG     WCI  19
SHELDON *      CLOUDY    28  28 100 E15       30.08F FOG     WCI  17
SIOUX CITY     LGT RAIN  38  36  92 S6        30.07F FOG     WCI  33
SPENCER        CLOUDY    29  25  85 NE12      30.12F FOG     WCI  19
STORM LAKE *   MIX PCPN  32  32 100 NE9       30.09F VSB 3/4 WCI  24
$$

IAZ055>058-069>071-079>083-090>094-312000-
   SOUTHWEST IOWA

CITY           SKY/WX    TMP DP  RH WIND       PRES   REMARKS
ATLANTIC *     LGT SNOW  34  34 100 S6        30.11F WCI  29
AUDUBON *      LGT SNOW  34  30  86 S7        30.11F WCI  28
CLARINDA *     CLOUDY    37  37 100 S10       30.15F WCI  30
COUNCIL BLFS * LGT SNOW  32  32 100 S7        30.08F VSB 1   WCI  26
CRESTON *      CLOUDY    37  37 100 S13       30.13F WCI  29
HARLAN *       LGT SNOW  32  32 100 S5        30.13F VSB 3/4 WCI  27
LAMONI         LGT RAIN  37  36  96 S14       30.15F WCI  28
RED OAK *      MIX PCPN  37  37 100 S15       30.11F WCI  28
SHENANDOAH *   CLOUDY    36  36 100 S14       30.12F FOG     WCI  27
$$

IAZ047>049-059>061-072>074-084-312000-
   CENTRAL IOWA

CITY           SKY/WX    TMP DP  RH WIND       PRES   REMARKS
AMES           CLOUDY    37  35  92 S7        30.13F FOG     WCI  32
ANKENY *       MIX PCPN  39  37  93 SW8G14    30.14F WCI  34
BOONE *        CLOUDY    37  37 100 SW8G15    30.10F FOG     WCI  31
CHARITON *     MIX PCPN  37  37 100 SW8G14    30.16F WCI  31
DES MOINES     LGT RAIN  39  35  86 SW12      30.15F WCI  32
GRINNELL *     DRIZZLE   36  35  94 SW9       30.15F WCI  29
KNOXVILLE *    MIX PCPN  37  36  93 SW8       30.15F WCI  31
MARSHALLTOWN   CLOUDY    37  36  96 SW6       30.13F FOG     WCI  32
NEWTON *       CLOUDY    37  36  93 S10       30.14F WCI  30
PELLA *        DRIZZLE   38  35  89 SW7       30.17F WCI  33
PERRY *        MIX PCPN  38  36  92 SW13      30.13F WCI  30
$$

IAZ004>006-015-016-023>025-035-036-312000-
   NORTH CENTRAL IOWA

CITY           SKY/WX    TMP DP  RH WIND       PRES   REMARKS
ALGONA *       CLOUDY    30  30 100 NE7       30.13S FOG     WCI  23
CLARION *      CLOUDY    34  34 100 SW5       30.12F WCI  30
ESTHERVILLE    CLOUDY    26  25  96 NE12      30.12F FOG     WCI  16
FORT DODGE *   CLOUDY    34  30  86 CALM      30.12F
MASON CITY     CLOUDY    31  26  82 E9        30.13F WCI  23
FOREST CITY *  CLOUDY    32  27  80 E7        30.12F WCI  26
WEBSTER CITY * FOG       34  34 100 CALM      30.10F VSB 1
IOWA FALLS *   DRIZZLE   34  32  94 CALM      30.13F
$$

IAZ007>011-017>019-026>030-037>042-050>054-066-312000-
   NORTHEAST IOWA

CITY           SKY/WX    TMP DP  RH WIND       PRES   REMARKS
CEDAR RAPIDS   CLOUDY    36  35  96 SW8       30.15F FOG     WCI  30
CHARLES CITY * CLOUDY    32  28  86 NE6       30.14S WCI  26
CLINTON *      CLOUDY    36  28  75 SW10      30.19F WCI  28
DECORAH *      CLOUDY    32  25  74 CALM      30.13S
DUBUQUE        CLOUDY    34  27  75 W7        30.14F WCI  28
MONTICELLO *   CLOUDY    37  32  81 W8        30.15F WCI  31
OELWEIN *      CLOUDY    36  28  75 S5        30.13F WCI  32
WATERLOO       CLOUDY    36  30  79 SW7       30.14F WCI  30
$$

IAZ064-065-067-068-078-312000-
   EAST CENTRAL IOWA

CITY           SKY/WX    TMP DP  RH WIND       PRES   REMARKS
DAVENPORT      CLOUDY    36  28  73 SW10      30.18F WCI  28
IOWA CITY      CLOUDY    36  33  89 SW8       30.20F FOG     WCI  30
MT. PLEASANT * RAIN      33  33 100 SW3       30.20F
MUSCATINE *    CLOUDY    36  34  93 SW6       30.20F FOG     WCI  31
QUAD CITIES    CLOUDY    37  29  72 SW9       30.18F WCI  30
$$

IAZ062-063-075>077-085>089-095>099-312000-
   SOUTHEAST IOWA

CITY           SKY/WX    TMP DP  RH WIND       PRES   REMARKS
BURLINGTON     CLOUDY    35  29  78 S5        30.20F WCI  31
FAIRFIELD *    MIX PCPN  37  34  87 SW6       30.18F WCI  33
FORT MADISON * DRIZZLE   36  28  75 S6        30.21F WCI  31
KEOKUK *       MIX PCPN  36  34  93 SW6       30.21F WCI  31
OTTUMWA        LGT RAIN  38  36  92 SW6       30.17F FOG     WCI  33
WASHINGTON *   CLOUDY    37  37 100 SW8       30.18F FOG     WCI  31
$$

ABBREVIATIONS USED IN REMARKS
   TC - TEMPERATURES IN CELSIUS
  WCI - WIND CHILL INDEX
   HX - HEAT INDEX
  VSB - VISIBILITY
$$



USA.gov is the U.S. government's official web portal to all federal, state and local government web resources and services.